TimeEDT,TemperatureF,Dew PointF,Humidity,Sea Level PressureIn,VisibilityMPH,Wind Direction,Wind SpeedMPH,Gust SpeedMPH,PrecipitationIn,Events,Conditions,WindDirDegrees,DateUTC
12:16 AM,53.6,53.6,100,30.16,1.8,Calm,Calm,-,N/A,,Clear,0,2013-08-07 04:16:00
12:26 AM,53.6,53.6,100,30.15,5.0,Calm,Calm,-,N/A,,Clear,0,2013-08-07 04:26:00
12:53 AM,53.1,52.0,96,30.15,10.0,Calm,Calm,-,N/A,,Clear,0,2013-08-07 04:53:00
1:53 AM,53.1,52.0,96,30.16,10.0,Calm,Calm,-,N/A,,Clear,0,2013-08-07 05:53:00
2:44 AM,53.6,51.8,94,30.16,10.0,Calm,Calm,-,N/A,,Scattered Clouds,0,2013-08-07 06:44:00
2:53 AM,53.1,51.1,93,30.17,10.0,Calm,Calm,-,N/A,,Mostly Cloudy,0,2013-08-07 06:53:00
3:16 AM,51.8,51.8,100,30.17,1.8,Calm,Calm,-,N/A,,Overcast,0,2013-08-07 07:16:00
3:18 AM,51.8,51.8,100,30.17,0.8,Calm,Calm,-,N/A,,Mist,0,2013-08-07 07:18:00
3:23 AM,53.6,51.8,94,30.17,0.2,Calm,Calm,-,N/A,Fog,Fog,0,2013-08-07 07:23:00
3:46 AM,51.8,51.8,100,30.16,1.0,Calm,Calm,-,N/A,,Mist,0,2013-08-07 07:46:00
3:50 AM,51.8,51.8,100,30.16,4.0,Calm,Calm,-,N/A,,Overcast,0,2013-08-07 07:50:00
3:53 AM,52.0,51.1,97,30.17,7.0,Calm,Calm,-,N/A,,Overcast,0,2013-08-07 07:53:00
4:02 AM,51.8,51.8,100,30.17,1.5,Calm,Calm,-,N/A,,Overcast,0,2013-08-07 08:02:00
4:11 AM,51.8,51.8,100,30.17,0.8,Calm,Calm,-,N/A,,Overcast,0,2013-08-07 08:11:00
4:33 AM,51.8,51.8,100,30.18,0.2,Calm,Calm,-,N/A,Fog,Fog,0,2013-08-07 08:33:00
4:41 AM,51.8,51.8,100,30.18,0.8,Calm,Calm,-,N/A,,Mist,0,2013-08-07 08:41:00
4:53 AM,52.0,51.1,97,30.18,0.8,Calm,Calm,-,N/A,,Mist,0,2013-08-07 08:53:00
5:17 AM,51.8,51.8,100,30.18,0.8,Calm,Calm,-,N/A,,Overcast,0,2013-08-07 09:17:00
5:21 AM,51.8,51.8,100,30.18,2.0,Calm,Calm,-,N/A,,Overcast,0,2013-08-07 09:21:00
5:28 AM,51.8,51.8,100,30.18,0.8,Calm,Calm,-,N/A,,Mist,0,2013-08-07 09:28:00
5:39 AM,51.8,51.8,100,30.19,0.2,Calm,Calm,-,N/A,Fog,Fog,0,2013-08-07 09:39:00
5:53 AM,51.1,51.1,100,30.19,0.2,Calm,Calm,-,N/A,Fog,Fog,0,2013-08-07 09:53:00
6:21 AM,51.8,51.8,100,30.19,0.2,Calm,Calm,-,N/A,Fog,Fog,0,2013-08-07 10:21:00
6:53 AM,54.0,54.0,100,30.18,0.2,Calm,Calm,-,N/A,Fog,Fog,0,2013-08-07 10:53:00
7:12 AM,55.4,55.4,100,30.18,0.8,Calm,Calm,-,N/A,,Scattered Clouds,0,2013-08-07 11:12:00
7:25 AM,57.2,57.2,100,30.18,6.0,Calm,Calm,-,N/A,,Partly Cloudy,0,2013-08-07 11:25:00
7:53 AM,62.1,61.0,96,30.19,6.0,Calm,Calm,-,N/A,,Partly Cloudy,0,2013-08-07 11:53:00
8:53 AM,71.1,59.0,66,30.19,10.0,ESE,3.5,-,0.01,,Clear,120,2013-08-07 12:53:00
9:53 AM,73.0,54.0,51,30.18,10.0,Variable,4.6,-,N/A,,Clear,0,2013-08-07 13:53:00
10:53 AM,75.0,54.0,48,30.18,10.0,SE,5.8,-,N/A,,Clear,140,2013-08-07 14:53:00
11:53 AM,75.9,46.9,36,30.18,10.0,ESE,8.1,-,N/A,,Clear,110,2013-08-07 15:53:00
12:53 PM,75.9,54.0,46,30.18,10.0,SSE,10.4,-,N/A,,Clear,150,2013-08-07 16:53:00
1:53 PM,77.0,52.0,42,30.18,10.0,SSE,12.7,18.4,N/A,,Clear,160,2013-08-07 17:53:00
2:53 PM,75.9,53.1,45,30.18,10.0,South,10.4,18.4,N/A,,Clear,170,2013-08-07 18:53:00
3:53 PM,75.0,53.1,46,30.17,10.0,SSW,10.4,20.7,N/A,,Clear,200,2013-08-07 19:53:00
4:53 PM,73.9,55.9,53,30.16,10.0,SSE,12.7,-,N/A,,Clear,160,2013-08-07 20:53:00
5:53 PM,73.0,55.0,53,30.15,10.0,South,10.4,-,N/A,,Clear,180,2013-08-07 21:53:00
6:53 PM,70.0,52.0,53,30.14,10.0,South,8.1,-,N/A,,Clear,190,2013-08-07 22:53:00
7:53 PM,64.9,54.0,68,30.15,10.0,SSW,4.6,-,N/A,,Clear,200,2013-08-07 23:53:00
8:53 PM,63.0,53.1,70,30.15,10.0,Calm,Calm,-,N/A,,Clear,0,2013-08-08 00:53:00
9:53 PM,62.1,54.0,75,30.15,10.0,Calm,Calm,-,N/A,,Clear,0,2013-08-08 01:53:00
10:53 PM,60.1,55.0,83,30.14,10.0,Calm,Calm,-,N/A,,Clear,0,2013-08-08 02:53:00
11:53 PM,59.0,55.0,87,30.15,10.0,SSW,4.6,-,N/A,,Clear,210,2013-08-08 03:53:00